Date String (YYYY-MM-DD hh:mm:ss) UTC,Instrument flags,absolute air pressure of the measurement (hPa),sample flow rate (lpm),inlet stack bypass flow (lpm),air temperature of the measurement (°C),ambient temperature measured by the external sensor (°C),aerosol sample conditioner tube jacket temperature (°C),OPC LED temperature (°C),internal box temperature (°C),relative humidity of the measurement (%),span deviation,mass concentration of particles derived from Lorenz-Mie calculation of OPC scattering (μg/m³),mass concentration of particles derived from Lorenz-Mie calculation of OPC scattering (μg/m³),mass concentration of particles derived from Lorenz-Mie calculation of OPC scattering (μg/m³)
DateTimeUTC,F1_M11,P_M11,Q1_M11,Q2_M11,T1_M11,T2_M11,T3_M11,T4_M11,T5_M11,U1_M11,ZSPAN_M11,X0_M11,X2_M11,X1_M11
2023-08-24 02:00:00,SystemResetWarning,0832.9,5.00,000.00,027.2,023.9,000.0,035.5,028.7,28.5,0001.5,0013.66,0006.61,0005.91
2023-08-24 02:01:00,SystemResetWarning,0832.9,5.00,000.00,027.2,024.3,000.0,035.6,028.8,28.3,0001.7,0013.95,0006.63,0005.92
2023-08-24 02:02:00,SystemResetWarning,0833.3,5.00,000.00,027.2,024.8,000.0,035.6,028.9,28.2,0001.5,0013.89,0006.64,0005.92
2023-08-24 02:03:00,SystemResetWarning,0833.4,5.00,000.00,027.3,025.2,000.0,035.6,029.0,27.9,0001.5,0013.54,0006.64,0005.92
2023-08-24 02:04:00,SystemResetWarning,0833.2,5.00,000.00,027.3,025.6,000.0,035.7,029.1,31.1,0001.6,0013.18,0006.63,0005.92
2023-08-24 02:05:00,SystemResetWarning,0832.9,5.01,000.00,027.4,025.9,000.0,035.7,029.2,31.2,0001.4,0012.95,0006.67,0005.93
2023-08-24 02:06:00,SystemResetWarning,0833.0,4.99,000.00,027.4,026.2,000.0,035.7,029.3,32.4,0001.6,0013.17,0006.68,0005.94
2023-08-24 02:07:00,SystemResetWarning,0832.9,4.99,000.00,027.5,025.3,000.0,035.6,029.1,33.2,0001.8,0013.52,0006.65,0005.94
2023-08-24 02:08:00,SystemResetWarning,0832.9,5.01,000.00,027.4,023.8,000.0,035.5,028.7,33.3,0002.0,0012.97,0006.64,0005.94
2023-08-24 02:09:00,SystemResetWarning,0833.0,5.00,000.00,027.3,023.5,000.0,035.5,028.6,33.0,0001.9,0013.17,0006.69,0005.93
2023-08-24 02:10:00,SystemResetWarning,0833.0,5.01,000.00,027.2,023.8,000.0,035.5,028.6,33.3,0002.0,0012.60,0006.70,0005.92
2023-08-24 02:11:00,SystemResetWarning,0832.9,5.00,000.00,027.2,024.2,000.0,035.5,028.7,33.1,0002.2,0012.65,0006.69,0005.91
2023-08-24 02:12:00,SystemResetWarning,0832.9,5.00,000.00,027.2,024.7,000.0,035.6,028.9,33.0,0002.2,0012.19,0006.69,0005.91
2023-08-24 02:13:00,SystemResetWarning,0833.0,5.00,000.00,027.2,025.1,000.0,035.6,029.0,32.6,0002.6,0011.90,0006.66,0005.90
2023-08-24 02:14:00,SystemResetWarning,0833.0,5.00,000.00,027.3,025.5,000.0,035.6,029.1,32.6,0002.5,0012.08,0006.64,0005.88
2023-08-24 02:15:00,SystemResetWarning,0833.0,4.99,000.00,027.3,025.8,000.0,035.7,029.2,32.1,0002.7,0012.24,0006.67,0005.87
2023-08-24 02:16:00,SystemResetWarning,0833.0,5.00,000.00,027.4,026.1,000.0,035.7,029.3,32.3,0002.9,0012.24,0006.65,0005.86
2023-08-24 02:17:00,SystemResetWarning,0832.9,5.00,000.00,027.5,026.1,000.0,035.7,029.3,32.1,0002.6,0012.16,0006.62,0005.84
2023-08-24 02:18:00,SystemResetWarning,0833.0,4.98,000.00,027.4,024.8,000.0,035.6,029.0,32.0,0002.4,0011.49,0006.61,0005.82
2023-08-24 02:19:00,SystemResetWarning,0832.9,5.01,000.00,027.3,023.6,000.0,035.5,028.7,32.5,0002.6,0011.46,0006.61,0005.83
2023-08-24 02:20:00,SystemResetWarning,0833.0,5.01,000.00,027.3,023.5,000.0,035.5,028.6,31.9,0002.5,0011.05,0006.54,0005.82
2023-08-24 02:21:00,SystemResetWarning,0833.0,4.99,000.00,027.2,023.9,000.0,035.5,028.6,31.8,0002.2,0010.81,0006.51,0005.81
2023-08-24 02:22:00,SystemResetWarning,0833.0,5.00,000.00,027.2,024.3,000.0,035.6,028.8,31.1,0001.9,0010.64,0006.51,0005.81
2023-08-24 02:23:00,SystemResetWarning,0833.2,5.01,000.00,027.2,024.8,000.0,035.6,028.9,30.9,0002.6,0010.56,0006.51,0005.80
2023-08-24 02:24:00,SystemResetWarning,0833.1,5.00,000.00,027.3,025.2,000.0,035.6,029.0,30.6,0002.1,0010.58,0006.51,0005.80
2023-08-24 02:25:00,SystemResetWarning,0833.2,4.99,000.00,027.3,025.6,000.0,035.6,029.1,30.8,0002.3,0010.33,0006.53,0005.80
2023-08-24 02:26:00,SystemResetWarning,0833.0,5.00,000.00,027.4,025.9,000.0,035.7,029.2,31.2,0002.5,0010.35,0006.54,0005.79
2023-08-24 02:27:00,SystemResetWarning,0833.0,5.00,000.00,027.4,026.2,000.0,035.7,029.3,31.7,0002.4,0010.37,0006.52,0005.77
2023-08-24 02:28:00,SystemResetWarning,0833.0,5.00,000.00,027.5,026.3,000.0,035.7,029.4,31.7,0002.5,0011.19,0006.52,0005.77
2023-08-24 02:29:00,SystemResetWarning,0833.1,4.99,000.00,027.5,025.2,000.0,035.7,029.1,31.4,0002.3,0011.25,0006.51,0005.77
2023-08-24 02:30:00,SystemResetWarning,0833.1,5.01,000.00,027.4,023.8,000.0,035.6,028.8,31.3,0001.8,0011.10,0006.44,0005.75
2023-08-24 02:31:00,SystemResetWarning,0833.0,5.01,000.00,027.3,023.5,000.0,035.5,028.7,31.3,0001.7,0011.15,0006.46,0005.75
2023-08-24 02:32:00,SystemResetWarning,0833.5,5.01,000.00,027.2,023.8,000.0,035.5,028.7,31.3,0001.9,0011.16,0006.46,0005.76
2023-08-24 02:33:00,SystemResetWarning,0833.2,4.99,000.00,027.2,024.3,000.0,035.6,028.8,31.2,0001.8,0011.11,0006.45,0005.75
2023-08-24 02:34:00,SystemResetWarning,0833.1,5.00,000.00,027.3,024.7,000.0,035.6,028.9,31.0,0001.2,0010.94,0006.37,0005.75
2023-08-24 02:35:00,SystemResetWarning,0833.2,4.99,000.00,027.3,025.2,000.0,035.6,029.0,31.0,0001.5,0011.17,0006.40,0005.73
2023-08-24 02:36:00,SystemResetWarning,0833.2,5.01,000.00,027.3,025.5,000.0,035.7,029.1,30.8,0001.4,0011.84,0006.43,0005.74
2023-08-24 02:37:00,SystemResetWarning,0833.2,5.00,000.00,027.4,025.9,000.0,035.7,029.2,30.7,0000.9,0012.02,0006.46,0005.74
2023-08-24 02:38:00,SystemResetWarning,0833.2,5.00,000.00,027.4,026.1,000.0,035.7,029.3,30.5,0000.7,0012.14,0006.54,0005.77
2023-08-24 02:39:00,SystemResetWarning,0833.2,5.00,000.00,027.5,026.4,000.0,035.8,029.4,30.1,0000.3,0011.76,0006.62,0005.82
2023-08-24 02:40:00,SystemResetWarning,0833.2,4.98,000.00,027.5,025.5,000.0,035.7,029.2,30.0,0000.5,0011.85,0006.66,0005.85
2023-08-24 02:41:00,SystemResetWarning,0833.2,5.01,000.00,027.4,024.0,000.0,035.6,028.9,29.7,0001.1,0012.19,0006.78,0005.89
2023-08-24 02:42:00,SystemResetWarning,0833.2,5.01,000.00,027.3,023.5,000.0,035.5,028.7,29.7,0001.3,0012.55,0006.89,0005.92
2023-08-24 02:43:00,SystemResetWarning,0833.2,5.02,000.00,027.3,023.8,000.0,035.5,028.7,29.9,0001.2,0012.90,0006.95,0005.95
2023-08-24 02:44:00,SystemResetWarning,0833.2,5.00,000.00,027.2,024.2,000.0,035.6,028.8,29.8,0001.4,0013.10,0006.96,0005.97
2023-08-24 02:45:00,SystemResetWarning,0833.2,5.00,000.00,027.3,024.7,000.0,035.6,028.9,29.7,0001.8,0013.21,0007.02,0006.00
2023-08-24 02:46:00,SystemResetWarning,0833.2,5.00,000.00,027.3,025.1,000.0,035.7,029.0,29.8,0001.4,0013.19,0007.08,0006.06
2023-08-24 02:47:00,SystemResetWarning,0833.3,5.00,000.00,027.3,025.5,000.0,035.7,029.1,29.6,0001.3,0013.58,0007.09,0006.10
2023-08-24 02:48:00,SystemResetWarning,0833.3,4.99,000.00,027.4,025.8,000.0,035.7,029.2,29.2,0001.5,0014.01,0007.13,0006.14
2023-08-24 02:49:00,SystemResetWarning,0833.3,4.99,000.00,027.4,026.1,000.0,035.7,029.3,29.2,0001.4,0014.76,0007.18,0006.18
2023-08-24 02:50:00,SystemResetWarning,0833.3,5.00,000.00,027.5,026.3,000.0,035.8,029.4,29.5,0001.6,0015.24,0007.19,0006.20
2023-08-24 02:51:00,SystemResetWarning,0833.3,4.99,000.00,027.5,025.8,000.0,035.7,029.3,29.6,0001.6,0015.59,0007.23,0006.21
2023-08-24 02:52:00,SystemResetWarning,0833.2,5.00,000.00,027.5,024.2,000.0,035.6,028.9,29.5,0001.3,0015.40,0007.20,0006.22
2023-08-24 02:53:00,SystemResetWarning,0833.2,5.01,000.00,027.3,023.5,000.0,035.5,028.7,29.3,0001.2,0015.26,0007.18,0006.24
2023-08-24 02:54:00,SystemResetWarning,0833.3,5.01,000.00,027.3,023.7,000.0,035.5,028.7,29.6,0001.2,0015.25,0007.18,0006.27
2023-08-24 02:55:00,SystemResetWarning,0833.3,5.00,000.00,027.2,024.1,000.0,035.6,028.8,30.0,0001.2,0015.42,0007.24,0006.28
2023-08-24 02:56:00,SystemResetWarning,0833.2,5.00,000.00,027.2,024.6,000.0,035.6,028.9,30.3,0001.1,0015.85,0007.27,0006.29
2023-08-24 02:57:00,SystemResetWarning,0833.3,5.00,000.00,027.3,025.0,000.0,035.7,029.0,29.9,0001.1,0016.17,0007.30,0006.30
2023-08-24 02:58:00,SystemResetWarning,0833.3,5.00,000.00,027.3,025.4,000.0,035.7,029.1,29.7,0001.3,0015.63,0007.32,0006.31
2023-08-24 02:59:00,SystemResetWarning,0833.3,5.00,000.00,027.4,025.7,000.0,035.7,029.2,29.5,0001.3,0014.96,0007.32,0006.32
